Location: Nicosia
(35.1670°N, 33.3670°E)
Time: 12:57:33
(UTC+02:00)

Tiangong - Pass Details

Date: 16 October 2022
Orbit: 386 x 394 km, 41.5° (Epoch: 04 December)

Event Time Altitude Azimuth Distance (km) Brightness Sun altitude
Rises 17:07:51 0° 272° (W) 2,262 3.2 11.5°
Reaches altitude 10° 17:10:03 10° 283° (WNW) 1,412 1.9 11.1°
Maximum altitude 17:12:57 31° 348° (NNW) 707 -0.8 10.5°
Drops below altitude 10° 17:15:52 10° 54° (NE) 1,423 0.2 10.0°
Enters shadow 17:20:35 -8° 70° (ENE) 3,278 1.8 9.1°
Exits shadow 17:56:37 -80° 103° (ESE) 12,953 5.4 2.0°
